Location: Darmstadt
(49.8706°N, 8.6494°E)
Time: 07:28:41
(UTC+01:00)

YAOGAN 1 - Pass Details

Date: 31 October 2020
Orbit: 618 x 620 km, 97.9° (Epoch: 03 December)

Event Time Altitude Azimuth Distance (km) Brightness Sun altitude
Rises 18:49:28 0° 161° (SSE) 2,886 5.8 -17.5°
Reaches altitude 10° 18:51:39 10° 160° (SSE) 1,985 5.0 -17.8°
Maximum altitude 18:55:58 79° 74° (ENE) 639 2.4 -18.5°
Drops below altitude 10° 19:00:19 10° 348° (NNW) 2,000 5.3 -19.2°
Sets 19:02:31 0° 348° (NNW) 2,911 6.2 -19.6°
